Weather in Myronivka

Ukraine / Kyiv Region     49°39′31″N   30°58′53″E
temp.,
°C
wind,
m/s
gust,
m/s
humid.,
%
clouds,
%
prec.,
mm/h
press.,
hPa
HPBL,
m
25 june, sat
sat2500:00+15n239054 0.0 101327
03:00+15ne369484 0.0 1014121
06:00+15nne379535 0.0 1014242
09:00+20ne587635 0.0 1015919
12:00+23ene6106062 0.1 10161430
15:00+20ese4568100 0.3 1016491
18:00+21ene376975 0.0 1016623
21:00+18ene348167 0.0 101654
26 june, sun
sun2600:00+17ne3787100 0.0 1017159
03:00+16ne3695100 0.0 1017133
06:00+16ne3795100 0.0 1018214
09:00+19ene4780100 0.7 1019478
12:00+25ene685548 0.3 10181726
15:00+25ene685294 0.4 10181591
18:00+25e6856100 0.1 10181481
21:00+21ene4873100 0.3 1019192
27 june, mon
mon2700:00+19ene368271 0.0 102099
03:00+17ene348982 0.0 102160
06:00+17ene378933 0.0 1021175
09:00+24ene58615 0.0 1021747
12:00+27ene684440 0.0 10212333
15:00+29ene783775 0.0 10192621
18:00+29ene574318 0.0 10192509
21:00+24ene4961100 0.0 1020268
28 june, tue
tue2800:00+20ene33845 0.0 102036
03:00+19ne22895 0.0 102020
06:00+20nne238332 0.0 102068
09:00+24ne346743 0.0 1020425
12:00+28ene565712 0.9 10191478
15:00+31ne464489 1.0 10172240
18:00+25ssw3569100 1.2 1018277
21:00+21nw1183100 3.6 101811
29 june, wed
wed2900:00+20n3590100 0.7 101974
03:00+19ne3694100 1.6 1019104
06:00+19ene2491100 0.0 101984
09:00+24e347414 0.0 1019404
12:00+27ese3456100 1.7 10191361
15:00+30e344535 1.7 10182108
18:00+29e554795 0.0 1017963
21:00+20ese388579 0.5 1019190